Wind_Speed
7 6 6 4 2 1 2 3 6 2 2 5 2 2 6 7 11 13 12 14 10 16 15 16 12 14 17 16 14 12 11 8 8 9 10 10 11 12
10 9 8 7 6 5 4 3 3 6 5 1 5 6 8 9 10 13 13 13 11 14 17 16 9 14 15 14 13 11 9 7 6 9 10 11 11 13
11 11 11 9 10 8 7 7 7 7 9 9 7 6 10 10 12 13 13 12 12 14 17 14 9 12 12 11 10 9 7 7 9 11 13 13 13 14
12 12 12 13 11 10 10 10 10 8 11 11 11 12 9 11 12 13 13 12 13 10 16 13 11 11 10 8 7 6 7 10 10 11 11 12 13 14
12 12 13 13 14 13 11 11 11 10 11 12 13 12 11 12 12 13 12 12 12 14 12 8 10 12 8 5 3 3 6 8 11 11 12 14 15 16
16 15 14 14 14 13 13 12 12 12 13 14 15 14 12 11 12 14 14 14 13 15 11 10 10 7 9 4 2 3 5 7 10 12 13 15 16 17
17 17 16 17 17 16 15 14 13 14 15 15 15 14 14 11 11 15 16 15 16 12 10 14 10 5 4 7 5 4 4 6 9 11 14 16 18 19
18 19 19 19 20 22 22 21 18 16 17 18 18 16 15 15 14 15 16 17 15 12 13 17 14 10 8 7 11 9 7 6 7 11 14 17 20 20
21 21 21 22 22 20 20 22 23 23 25 23 21 21 19 17 16 16 16 16 17 17 19 18 15 11 9 11 14 11 10 8 8 11 14 17 20 20
26 24 24 25 23 22 21 21 20 19 21 24 26 26 23 21 19 18 17 18 18 17 14 17 15 17 7 9 16 12 12 11 10 11 13 16 19 20
32 32 30 29 29 28 27 24 24 23 22 25 26 26 27 27 24 20 21 19 19 17 14 16 14 18 9 12 13 15 14 13 13 12 13 14 15 16
34 35 37 38 33 33 32 29 27 27 25 24 20 23 26 28 29 30 24 23 22 19 15 12 15 15 13 6 10 13 14 14 14 13 12 12 13 12
33 33 36 38 41 43 39 34 33 29 26 26 26 26 26 25 22 22 24 26 25 24 20 14 18 19 15 17 13 12 12 11 12 11 10 9 11 12
33 33 33 33 35 38 40 44 42 36 31 30 30 29 27 26 25 24 24 24 25 26 24 18 20 20 19 19 18 12 11 10 11 10 9 10 11 12
33 32 32 30 27 30 33 39 38 35 34 33 32 31 30 29 26 24 21 22 24 26 25 23 24 24 23 22 19 14 11 12 12 10 10 9 8 6
37 37 33 30 28 29 27 30 33 31 30 31 31 31 30 28 27 26 26 25 25 24 25 23 24 22 24 24 20 20 16 12 10 11 10 9 8 7
26 25 29 30 30 31 30 30 27 26 31 32 30 29 29 28 28 27 27 26 26 24 24 22 22 22 24 24 19 19 20 20 16 11 10 11 10 10
16 24 29 30 31 29 30 29 30 31 29 28 29 30 30 29 28 27 28 28 27 26 25 24 19 17 16 20 28 22 19 18 14 12 14 13 11 10
25 27 28 31 31 29 28 29 30 29 27 29 29 28 28 29 28 29 28 28 27 27 27 26 23 21 13 12 11 13 20 19 16 14 14 13 11 9
25 25 29 29 29 26 28 28 28 28 28 29 28 28 28 28 27 28 28 28 28 28 27 25 20 23 22 18 18 14 19 18 18 16 14 12 10 10
27 30 29 28 26 26 24 28 28 29 28 28 27 28 27 26 27 28 28 29 28 27 24 24 27 27 25 21 19 17 13 24 19 16 12 12 12 11
28 29 27 29 30 29 27 28 27 25 27 28 28 28 28 29 28 27 27 27 26 28 27 25 18 22 22 21 22 18 16 16 22 20 17 16 8 7
27 29 29 29 26 27 29 30 29 30 27 27 27 28 27 28 29 28 25 25 23 22 20 15 20 22 20 21 21 15 16 16 15 18 18 18 18 18
Wind_Direction
207 218 243 201 225 270 338 9 335 311 137 141 280 357 339 330 320 335 332 326 337 345 347 349 340 346 353 355 350 357 357 9 19 11 7 8 355 349
219 210 230 227 231 243 263 275 284 306 301 186 287 323 322 318 320 331 325 334 318 335 341 346 345 347 345 350 359 10 16 28 26 15 4 359 2 352
225 224 228 232 239 238 244 256 265 266 279 289 307 300 316 313 314 321 324 323 326 324 338 342 339 339 339 352 359 7 30 25 11 7 3 2 4 356
225 225 230 228 232 244 246 253 265 270 274 284 289 293 295 306 308 312 315 319 320 309 332 333 337 327 336 351 0 24 22 9 7 4 3 2 360 354
227 227 229 229 230 240 237 250 244 248 254 266 281 283 289 295 302 304 305 313 314 325 329 320 343 343 335 340 1 17 8 6 1 7 6 3 359 354
232 231 232 229 232 234 238 244 254 262 260 263 271 278 279 290 290 297 309 312 319 320 315 326 295 324 338 318 288 327 350 359 3 5 4 2 358 357
232 232 233 232 230 229 237 236 250 248 257 262 267 272 274 285 302 304 302 309 310 311 310 324 302 291 306 298 267 289 314 340 359 360 359 359 358 359
236 233 234 238 238 236 235 238 241 249 257 269 274 276 286 280 283 293 301 303 305 306 311 310 311 304 281 280 257 276 288 311 345 351 357 355 357 357
240 239 236 237 234 238 245 244 245 245 246 252 261 267 279 277 280 282 282 290 289 297 301 300 301 288 250 266 270 271 278 291 320 339 351 354 353 352
242 242 240 240 234 233 237 240 243 245 249 251 251 257 261 265 264 269 274 280 282 275 273 278 295 303 264 256 268 269 268 278 297 321 340 349 352 351
242 241 241 241 240 236 233 241 244 247 250 249 256 260 257 258 255 264 268 272 275 279 281 279 285 289 286 267 259 271 255 263 282 299 323 340 349 354
240 241 242 241 241 241 237 239 244 246 251 258 254 258 263 262 257 251 252 257 266 277 281 275 277 287 298 264 244 256 267 260 269 280 298 320 340 354
241 242 242 243 243 240 240 238 241 248 251 253 257 259 259 256 253 250 243 245 260 268 273 264 270 279 272 274 277 252 240 250 264 280 279 296 325 331
242 244 246 247 246 245 245 246 244 245 250 254 255 256 257 255 255 250 243 242 250 257 265 269 263 266 276 285 278 272 234 241 244 250 255 268 309 323
243 248 252 253 255 253 249 250 253 247 246 248 248 250 251 254 258 257 254 250 252 256 260 254 246 253 258 266 275 270 263 237 236 242 243 247 261 272
243 245 250 250 250 252 250 250 242 238 237 241 244 249 251 251 249 248 252 252 248 254 250 236 243 246 250 254 260 261 260 244 226 232 234 246 258 266
233 238 243 242 243 244 242 241 237 233 234 239 243 245 247 247 247 247 251 252 252 255 257 251 232 232 241 246 241 246 260 252 244 235 227 248 258 254
226 237 240 239 238 237 236 235 233 235 234 235 238 241 244 244 245 245 246 248 251 250 252 252 239 228 234 248 243 246 246 251 243 214 230 247 259 260
232 243 245 243 241 240 238 239 239 235 234 236 238 238 241 242 243 246 246 246 246 247 249 253 246 228 231 244 248 233 237 233 232 233 239 242 256 263
233 236 245 249 246 244 242 242 243 242 237 238 237 238 240 243 244 243 244 245 249 250 250 250 245 234 223 240 268 259 223 224 216 221 233 235 244 246
228 234 238 246 252 247 243 242 245 245 244 243 241 239 238 239 244 245 246 246 249 252 248 244 239 235 234 245 251 218 204 206 207 213 221 236 241 244
233 235 234 239 242 249 247 245 246 242 237 238 244 246 242 243 248 250 250 252 249 245 247 252 240 224 221 226 234 230 199 197 204 214 217 218 219 228
235 235 236 237 237 239 240 241 241 247 246 242 245 246 242 237 240 239 242 244 249 246 247 234 227 210 215 217 223 227 184 197 190 199 216 219 225 236
Height
887 888 887 886 887 886 886 886 883 877 876 881 880 882 881 880 878 877 875 872 869 867 864 861 859 856 853 849 846 844 843 841 839 837 836 834 832 831
884 886 887 885 886 886 886 886 886 884 879 879 880 881 881 879 876 875 873 869 866 865 862 860 857 855 852 849 846 844 842 841 838 837 835 833 832 829
883 884 885 885 884 883 884 884 884 884 881 878 879 879 879 877 875 873 870 868 865 862 861 858 856 854 851 849 846 844 843 842 840 838 836 834 832 829
880 881 882 882 883 882 882 883 882 882 882 880 878 877 877 875 873 870 868 866 864 860 859 855 854 852 850 849 846 845 844 842 840 837 834 832 830 827
876 877 878 879 880 879 880 879 879 879 879 878 875 874 873 872 871 868 866 864 861 858 856 852 852 851 849 847 846 844 843 841 840 838 835 833 830 827
872 873 874 875 876 877 877 878 878 878 876 875 873 870 869 868 868 865 862 861 860 858 855 853 850 847 848 846 845 843 842 841 839 837 834 832 829 826
868 869 870 870 871 872 873 873 875 874 872 870 868 867 865 863 863 863 861 858 857 855 853 852 847 843 844 843 843 841 840 839 838 836 833 830 828 824
863 864 865 866 867 867 867 869 870 871 871 869 865 863 863 865 862 861 859 857 855 853 851 849 847 844 845 844 841 839 838 837 836 834 832 829 826 823
858 859 859 859 861 863 862 863 863 865 866 866 864 863 861 862 861 860 858 856 854 851 850 846 843 839 841 838 838 836 836 835 834 833 832 829 825 821
850 852 853 853 854 855 857 857 857 858 858 858 857 856 857 856 856 856 854 852 850 847 845 842 839 836 836 836 833 834 832 832 831 831 829 828 825 822
842 843 845 846 847 849 850 851 851 851 851 850 850 850 849 849 849 850 847 846 841 838 837 836 836 832 831 832 831 829 828 827 828 828 827 826 824 821
831 833 834 836 838 841 843 843 843 843 845 844 843 842 841 840 841 841 842 840 836 833 832 832 831 828 826 825 828 826 824 823 824 825 824 823 822 821
819 820 821 822 826 829 832 834 834 837 838 838 837 835 834 833 833 832 832 833 831 827 827 828 827 826 823 823 824 824 823 823 821 821 821 821 820 819
809 809 811 814 815 818 821 821 825 829 830 828 826 824 824 823 823 823 823 823 824 823 823 824 822 821 819 816 816 819 818 820 819 819 820 818 817 816
802 803 805 807 808 810 812 812 815 819 820 818 815 814 815 815 816 816 817 817 817 817 816 816 815 814 814 812 811 813 816 813 813 814 815 816 815 814
791 795 799 800 801 802 804 804 805 806 807 806 806 806 807 806 806 808 809 808 807 806 804 805 807 809 807 805 806 806 807 807 806 809 810 811 811 811
784 787 789 790 790 790 792 794 795 795 796 796 797 796 797 798 797 798 799 799 797 796 795 795 796 798 799 800 800 800 800 801 802 804 807 806 806 807
778 778 777 777 777 777 779 781 782 783 784 786 787 787 787 787 787 788 790 789 788 786 786 786 788 792 792 791 791 792 793 794 796 798 800 800 800 801
768 770 768 766 766 768 769 772 771 771 774 775 776 776 777 778 778 778 778 779 778 777 777 777 778 782 783 780 781 783 785 787 789 794 797 796 796 796
760 762 762 759 759 760 762 763 765 766 765 766 767 767 768 769 768 768 768 769 769 769 769 770 770 774 775 775 773 774 774 779 781 785 788 790 791 792
748 750 752 754 755 755 756 758 757 757 758 757 757 759 759 759 759 759 757 758 759 759 759 761 762 765 768 771 770 768 769 770 774 778 782 784 785 785
737 738 739 743 745 748 749 750 750 750 751 753 753 753 753 752 749 750 750 749 749 750 751 754 757 758 761 761 760 759 764 766 766 772 775 778 780 780
728 729 730 732 734 737 739 741 741 742 743 744 745 746 745 744 744 744 745 745 745 745 746 749 751 752 753 754 758 759 760 764 762 763 766 769 772 774